UAE839 OMDB-OBBI

Flight info

Callsign UAE839
Flight time N/A
Altitude 26000
Route NABIX P699 ORMID Y856 ALKAN/N0421F180 Y856 SOLOB/N0410F160 Y856 ORDIG
Aircraft A35K/H-SDE2E3GHIJ3J4J5LM1ORWXY/LB1D1

Departure

Time 2026-04-24 08:07
Airport Dubai International Airport (OMDB)

Arrival

Time N/A
Airport Bahrain International Airport (OBBI)
Time Latitude Longitude Altitude Speed Heading
2026-04-24 07:12 25.25506 55.35204 27 ft 0 kts 211°
2026-04-24 07:45 25.25512 55.35209 27 ft 3 kts 211°
2026-04-24 07:45 25.25526 55.35218 25 ft 3 kts 211°
2026-04-24 07:45 25.25528 55.35219 26 ft 0 kts 211°
2026-04-24 07:50 25.25542 55.35229 26 ft 3 kts 211°
2026-04-24 07:50 25.25559 55.35242 25 ft 3 kts 226°
2026-04-24 07:50 25.25571 55.35260 24 ft 3 kts 245°
2026-04-24 07:51 25.25590 55.35281 26 ft 0 kts 291°
2026-04-24 07:51 25.25572 55.35282 25 ft 0 kts 296°
2026-04-24 07:53 25.25572 55.35283 27 ft 2 kts 296°
2026-04-24 07:58 25.25569 55.35288 27 ft 2 kts 296°
2026-04-24 07:58 25.25570 55.35286 27 ft 2 kts 296°
2026-04-24 07:58 25.25582 55.35259 27 ft 5 kts 296°
2026-04-24 07:58 25.25602 55.35218 27 ft 7 kts 299°
2026-04-24 07:59 25.25632 55.35167 27 ft 8 kts 311°
2026-04-24 07:59 25.25685 55.35159 27 ft 8 kts 10°
2026-04-24 07:59 25.25743 55.35189 27 ft 10 kts 29°
2026-04-24 07:59 25.25811 55.35233 27 ft 12 kts 31°
2026-04-24 08:00 25.25888 55.35286 27 ft 14 kts 32°
2026-04-24 08:00 25.25972 55.35354 28 ft 16 kts 49°
2026-04-24 08:00 25.26012 55.35466 28 ft 16 kts 89°
2026-04-24 08:00 25.25973 55.35585 29 ft 17 kts 119°
2026-04-24 08:01 25.25909 55.35703 29 ft 19 kts 122°
2026-04-24 08:01 25.25836 55.35831 29 ft 20 kts 122°
2026-04-24 08:01 25.25762 55.35962 29 ft 22 kts 122°
2026-04-24 08:01 25.25675 55.36116 30 ft 23 kts 121°
2026-04-24 08:02 25.25586 55.36273 30 ft 25 kts 122°
2026-04-24 08:02 25.25504 55.36419 30 ft 23 kts 122°
2026-04-24 08:02 25.25417 55.36572 30 ft 24 kts 122°
2026-04-24 08:02 25.25324 55.36737 30 ft 26 kts 122°
2026-04-24 08:03 25.25226 55.36911 30 ft 27 kts 121°
2026-04-24 08:03 25.25127 55.37091 31 ft 28 kts 122°
2026-04-24 08:03 25.25021 55.37283 31 ft 29 kts 121°
2026-04-24 08:03 25.24918 55.37465 31 ft 26 kts 123°
2026-04-24 08:04 25.24819 55.37636 31 ft 27 kts 122°
2026-04-24 08:04 25.24733 55.37785 31 ft 14 kts 122°
2026-04-24 08:04 25.24680 55.37881 30 ft 16 kts 117°
2026-04-24 08:04 25.24692 55.37960 31 ft 7 kts 46°
2026-04-24 08:05 25.24729 55.37994 33 ft 6 kts 40°
2026-04-24 08:05 25.24756 55.38018 35 ft 4 kts 39°
2026-04-24 08:05 25.24785 55.38035 36 ft 6 kts 13°
2026-04-24 08:05 25.24802 55.38024 36 ft 3 kts 316°
2026-04-24 08:06 25.24828 55.37988 32 ft 8 kts 307°
2026-04-24 08:06 25.24838 55.37971 36 ft 0 kts 302°
2026-04-24 08:06 25.24846 55.37958 36 ft 11 kts 302°
2026-04-24 08:06 25.25008 55.37667 36 ft 80 kts 301°
2026-04-24 08:07 25.25417 55.36934 36 ft 141 kts 301°
2026-04-24 08:07 25.25979 55.35876 412 ft 159 kts 300°
2026-04-24 08:07 25.26485 55.34806 1192 ft 158 kts 302°
2026-04-24 08:07 25.27079 55.33742 1547 ft 171 kts 307°
2026-04-24 08:08 25.27774 55.32578 1885 ft 190 kts 306°
2026-04-24 08:08 25.28530 55.31285 2274 ft 211 kts 304°
2026-04-24 08:08 25.29171 55.29747 2675 ft 231 kts 283°
2026-04-24 08:09 25.28328 55.26329 3971 ft 238 kts 244°
2026-04-24 08:09 25.27595 55.24677 4591 ft 240 kts 244°
2026-04-24 08:09 25.26862 55.23021 5181 ft 240 kts 244°
2026-04-24 08:09 25.26412 55.21995 5606 ft 239 kts 244°
2026-04-24 08:10 25.26268 55.21662 5733 ft 238 kts 244°
2026-04-24 08:10 25.26223 55.21558 5778 ft 238 kts 244°
2026-04-24 08:10 25.25515 55.19913 6432 ft 236 kts 243°
2026-04-24 08:10 25.24811 55.18275 6996 ft 237 kts 244°
2026-04-24 08:11 25.24162 55.16586 7569 ft 241 kts 251°
2026-04-24 08:11 25.23792 55.14737 7938 ft 254 kts 259°
2026-04-24 08:11 25.23519 55.12743 8185 ft 271 kts 261°
2026-04-24 08:11 25.23247 55.10650 8642 ft 278 kts 261°
2026-04-24 08:12 25.22968 55.08530 9257 ft 280 kts 260°
2026-04-24 08:12 25.22779 55.07119 9696 ft 280 kts 260°
2026-04-24 08:12 25.22491 55.04981 10239 ft 285 kts 260°
2026-04-24 08:12 25.22188 55.02766 10485 ft 300 kts 260°
2026-04-24 08:13 25.21868 55.00432 10702 ft 315 kts 260°
2026-04-24 08:13 25.21532 54.97993 10933 ft 328 kts 260°
2026-04-24 08:13 25.21183 54.95452 11144 ft 341 kts 260°
2026-04-24 08:13 25.20863 54.92808 11372 ft 353 kts 263°
2026-04-24 08:14 25.20682 54.90083 11744 ft 359 kts 265°
2026-04-24 08:14 25.20517 54.87322 12182 ft 362 kts 265°
2026-04-24 08:14 25.20338 54.84541 12653 ft 365 kts 264°
2026-04-24 08:14 25.20147 54.81739 13083 ft 368 kts 264°
2026-04-24 08:15 25.19949 54.78911 13516 ft 370 kts 264°
2026-04-24 08:15 25.19834 54.76058 13946 ft 373 kts 270°
2026-04-24 08:15 25.19951 54.73196 14391 ft 374 kts 272°
2026-04-24 08:15 25.20123 54.70326 14858 ft 375 kts 273°
2026-04-24 08:16 25.20298 54.67450 15326 ft 375 kts 273°
2026-04-24 08:16 25.20470 54.64570 15781 ft 376 kts 273°
2026-04-24 08:16 25.20640 54.61682 16241 ft 377 kts 273°
2026-04-24 08:16 25.20808 54.58791 16712 ft 378 kts 273°
2026-04-24 08:17 25.20976 54.55888 17170 ft 379 kts 273°
2026-04-24 08:17 25.21232 54.52988 17607 ft 381 kts 279°
2026-04-24 08:17 25.21759 54.50117 18057 ft 382 kts 282°
2026-04-24 08:17 25.22419 54.47306 18440 ft 384 kts 284°
2026-04-24 08:18 25.23161 54.44453 18760 ft 388 kts 285°
2026-04-24 08:18 25.23926 54.41593 19079 ft 391 kts 285°
2026-04-24 08:18 25.24696 54.38704 19412 ft 393 kts 285°
2026-04-24 08:18 25.25458 54.35790 19738 ft 396 kts 285°
2026-04-24 08:19 25.26212 54.32854 20063 ft 398 kts 284°
2026-04-24 08:19 25.26961 54.29901 20384 ft 401 kts 284°
2026-04-24 08:19 25.27708 54.26921 20705 ft 404 kts 284°
2026-04-24 08:19 25.28450 54.23920 21017 ft 406 kts 284°
2026-04-24 08:20 25.29191 54.20907 21336 ft 408 kts 284°
2026-04-24 08:20 25.29938 54.17869 21644 ft 411 kts 284°
2026-04-24 08:20 25.30690 54.14814 21963 ft 413 kts 284°
2026-04-24 08:20 25.31443 54.11740 22278 ft 415 kts 283°
2026-04-24 08:21 25.32142 54.08638 22576 ft 417 kts 282°
2026-04-24 08:21 25.32797 54.05504 22872 ft 419 kts 281°
2026-04-24 08:21 25.33437 54.02351 23173 ft 421 kts 281°
2026-04-24 08:21 25.34081 53.99182 23472 ft 424 kts 281°
2026-04-24 08:22 25.34735 53.95997 23726 ft 425 kts 281°
2026-04-24 08:22 25.35397 53.92806 24007 ft 426 kts 281°
2026-04-24 08:22 25.36064 53.89611 24303 ft 427 kts 281°
2026-04-24 08:22 25.36733 53.86407 24569 ft 428 kts 281°
2026-04-24 08:23 25.37403 53.83200 24842 ft 429 kts 281°
2026-04-24 08:23 25.38074 53.79983 25130 ft 430 kts 281°
2026-04-24 08:23 25.38748 53.76756 25392 ft 431 kts 281°
2026-04-24 08:23 25.39424 53.73520 25661 ft 432 kts 281°
2026-04-24 08:24 25.40100 53.70279 25854 ft 438 kts 281°
2026-04-24 08:24 25.40787 53.66982 25882 ft 453 kts 281°
2026-04-24 08:24 25.41503 53.63529 25884 ft 468 kts 281°
2026-04-24 08:24 25.42239 53.59975 25883 ft 482 kts 281°
2026-04-24 08:25 25.42995 53.56314 25884 ft 493 kts 281°
2026-04-24 08:25 25.43748 53.52677 25896 ft 474 kts 281°
2026-04-24 08:25 25.44481 53.49201 25901 ft 455 kts 282°
2026-04-24 08:25 25.45197 53.45856 25902 ft 438 kts 282°
2026-04-24 08:26 25.45887 53.42625 25895 ft 430 kts 282°
2026-04-24 08:26 25.46561 53.39430 25897 ft 424 kts 281°
2026-04-24 08:26 25.47223 53.36261 25892 ft 422 kts 281°
2026-04-24 08:26 25.47878 53.33100 25891 ft 421 kts 281°
2026-04-24 08:27 25.48530 53.29941 25894 ft 421 kts 281°
2026-04-24 08:27 25.49180 53.26782 25895 ft 420 kts 281°
2026-04-24 08:27 25.49829 53.23627 25893 ft 420 kts 281°
2026-04-24 08:27 25.50479 53.20482 25893 ft 420 kts 281°
2026-04-24 08:28 25.51127 53.17328 25892 ft 420 kts 281°
2026-04-24 08:28 25.51772 53.14172 25892 ft 420 kts 281°
2026-04-24 08:28 25.52414 53.11023 25895 ft 419 kts 281°
2026-04-24 08:28 25.53057 53.07875 25894 ft 419 kts 281°
2026-04-24 08:29 25.53698 53.04729 25896 ft 419 kts 281°
2026-04-24 08:29 25.54339 53.01587 25899 ft 418 kts 281°
2026-04-24 08:29 25.54978 52.98449 25899 ft 418 kts 281°
2026-04-24 08:29 25.55619 52.95304 25899 ft 418 kts 281°
2026-04-24 08:30 25.56339 52.92180 25898 ft 419 kts 286°
2026-04-24 08:30 25.57442 52.89194 25903 ft 420 kts 293°
2026-04-24 08:30 25.58736 52.86291 25901 ft 421 kts 295°
2026-04-24 08:30 25.60101 52.83421 25901 ft 421 kts 296°
2026-04-24 08:31 25.61481 52.80608 25902 ft 421 kts 296°
2026-04-24 08:31 25.62892 52.77762 25902 ft 421 kts 296°
2026-04-24 08:31 25.64303 52.74914 25905 ft 421 kts 296°
2026-04-24 08:31 25.65705 52.72069 25905 ft 421 kts 296°
2026-04-24 08:32 25.67103 52.69214 25903 ft 421 kts 296°
2026-04-24 08:32 25.68498 52.66357 25903 ft 421 kts 296°
2026-04-24 08:32 25.69890 52.63493 25907 ft 421 kts 296°
2026-04-24 08:32 25.71277 52.60634 25899 ft 422 kts 295°
2026-04-24 08:33 25.72665 52.57767 25892 ft 422 kts 295°
2026-04-24 08:33 25.73893 52.55220 25861 ft 423 kts 295°
2026-04-24 08:33 25.75278 52.52345 25847 ft 423 kts 295°
2026-04-24 08:33 25.76668 52.49465 25846 ft 423 kts 295°
2026-04-24 08:34 25.78062 52.46589 25864 ft 423 kts 295°
2026-04-24 08:34 25.79463 52.43722 25905 ft 422 kts 296°
2026-04-24 08:34 25.25506 55.35204 33 ft 0 kts 211°